GW2785 Weather Reports


time (UTC)temp
C
wind
direction
speed
KPH
gust
KPH
rain 1hr
cm
rain 24hr
cm
rain mn
cm
humidity
%
barometer
mb
20260507082241 2 161 0.0 0.0 0.00 0.00 0.00 99 1011.1
20260507081738 2 161 0.0 0.0 0.00 0.00 0.00 99 1010.9
20260507081234 1 161 0.0 0.0 0.00 0.00 0.00 99 1011.1
20260507080731 2 160 0.0 0.0 0.00 0.00 0.00 99 1011.4
20260507080227 2 160 0.0 0.0 0.00 0.00 0.00 99 1011.1
20260507075723 2 161 0.0 0.0 0.00 0.00 0.00 99 1011.0
20260507075219 2 160 0.0 0.0 0.00 0.00 0.00 99 1011.1
20260507074715 2 161 0.0 0.0 0.00 0.00 0.00 99 1011.2
20260507074214 2 161 0.0 0.0 0.00 0.00 0.00 99 1010.9
20260507073710 2 161 0.0 0.0 0.00 0.00 0.00 99 1010.9
20260507073206 3 161 0.0 0.0 0.00 0.00 0.00 99 1011.0
20260507072705 3 160 0.0 0.0 0.00 0.00 0.00 99 1011.0
20260507072202 3 160 0.0 0.0 0.00 0.00 0.00 99 1010.9
20260507071659 3 160 0.0 0.0 0.00 0.00 0.00 99 1011.1
20260507071155 2 158 0.0 0.0 0.00 0.00 0.00 99 1011.1
20260507070653 3 159 0.0 0.0 0.00 0.00 0.00 99 1011.1
20260507070149 3 160 0.0 0.0 0.00 0.00 0.00 99 1011.0
20260507065645 3 160 0.0 0.0 0.00 0.00 0.00 99 1011.0
20260507065142 3 163 0.0 0.0 0.00 0.00 0.00 99 1011.4
20260507064640 3 161 0.0 0.0 0.00 0.00 0.00 99 1011.2
20260507064139 3 161 0.0 0.0 0.00 0.00 0.00 99 1011.5
20260507063636 3 160 0.0 0.0 0.00 0.00 0.00 99 1011.3
20260507063132 3 160 0.0 0.0 0.00 0.00 0.00 99 1011.4
20260507062629 3 160 0.0 0.0 0.00 0.00 0.00 99 1011.0
20260507062127 3 160 0.0 0.0 0.00 0.00 0.00 99 1011.4
20260507061624 3 160 0.0 0.0 0.00 0.00 0.00 99 1011.2
20260507061123 3 160 0.0 0.0 0.00 0.00 0.00 99 1011.1
20260507060620 3 161 0.0 0.0 0.00 0.00 0.00 99 1011.2
20260507060117 3 161 0.0 0.0 0.00 0.00 0.00 99 1011.4
20260507055612 3 161 0.0 0.0 0.00 0.00 0.00 99 1011.3
20260507055108 3 161 0.0 0.0 0.00 0.00 0.00 99 1011.4
20260507054604 3 161 0.0 0.0 0.00 0.00 0.00 99 1011.3
20260507054101 3 161 0.0 0.0 0.00 0.00 0.00 99 1011.2
20260507053559 4 160 0.0 0.0 0.00 0.00 0.00 99 1011.3
20260507053058 4 157 0.0 0.0 0.00 0.00 0.00 99 1011.3
20260507052555 4 160 0.0 0.0 0.00 0.00 0.00 99 1011.2
20260507052052 4 156 0.0 0.0 0.00 0.00 0.00 99 1011.3
20260507051549 4 157 0.0 0.0 0.00 0.00 0.00 99 1011.4
20260507051046 5 160 0.0 0.0 0.00 0.00 0.00 99 1011.4
20260507050542 5 161 0.0 0.0 0.00 0.00 0.00 99 1011.5
20260507050039 5 161 0.0 0.0 0.00 0.00 0.00 99 1011.5
20260507045536 5 160 0.0 0.0 0.00 0.00 0.00 99 1011.6
20260507045033 5 160 0.0 0.0 0.00 0.00 0.00 99 1011.6
20260507044530 5 161 0.0 0.0 0.00 0.00 0.00 99 1011.8
20260507044027 5 162 0.0 0.0 0.00 0.00 0.00 99 1011.5
20260507043522 5 161 0.0 0.0 0.00 0.00 0.00 99 1011.3
20260507043020 5 160 0.0 0.0 0.00 0.00 0.00 99 1011.3
20260507042516 5 161 0.0 0.0 0.00 0.00 0.00 99 1011.4
20260507042011 5 161 0.0 0.0 0.00 0.00 0.00 99 1011.5
20260507041509 5 161 0.0 0.0 0.00 0.00 0.00 99 1011.4
20260507041005 5 161 0.0 0.0 0.00 0.00 0.00 99 1011.4
20260507040501 5 161 0.0 0.0 0.00 0.00 0.00 99 1011.4
20260507035957 5 161 0.0 0.0 0.00 1.85 1.85 99 1011.3
20260507035454 5 161 0.0 0.0 0.00 1.85 1.85 99 1011.3
20260507034950 5 160 0.0 0.0 0.00 1.85 1.85 99 1011.2
20260507034447 5 159 0.0 0.0 0.00 1.85 1.85 99 1011.4
20260507033946 5 160 0.0 0.0 0.00 1.85 1.85 99 1011.5
20260507033443 6 161 0.0 0.0 0.00 1.85 1.85 99 1011.3
20260507032940 5 161 0.0 0.0 0.00 1.85 1.85 99 1011.2
20260507032437 6 161 0.0 0.0 0.00 1.85 1.85 99 1011.2
20260507031933 6 161 0.0 0.0 0.00 1.85 1.85 99 1011.5
20260507031430 6 161 0.0 0.0 0.00 1.85 1.85 99 1011.3
20260507030926 6 161 0.0 0.0 0.00 1.85 1.85 99 1011.6
20260507030424 6 159 0.0 0.0 0.00 1.85 1.85 99 1011.6
20260507025921 6 158 0.0 0.0 0.00 1.85 1.85 99 1011.5
20260507025418 6 159 0.0 0.0 0.00 1.85 1.85 99 1011.7
20260507024916 6 160 0.0 0.0 0.00 1.85 1.85 99 1011.3
20260507024413 6 161 0.0 0.0 0.00 1.85 1.85 99 1011.5
20260507023908 6 161 0.0 0.0 0.00 1.85 1.85 99 1011.5
20260507023406 6 161 0.0 0.0 0.00 1.85 1.85 99 1011.3
20260507022903 6 161 0.0 0.0 0.00 1.85 1.85 99 1011.4
20260507022359 6 161 0.0 0.0 0.00 1.85 1.85 99 1011.3
20260507021855 7 159 0.0 0.0 0.00 1.85 1.85 99 1011.4
20260507021350 6 161 0.0 0.0 0.00 1.85 1.85 98 1011.3
20260507020849 6 161 0.0 0.0 0.00 1.85 1.85 98 1011.2
20260507020345 6 161 0.0 0.0 0.00 1.85 1.85 98 1011.1
20260507015842 7 161 0.0 0.0 0.00 1.85 1.85 98 1011.1
20260507015340 7 161 0.0 0.0 0.00 1.85 1.85 98 1011.0
20260507014837 7 161 0.0 0.0 0.00 1.85 1.85 97 1010.9
20260507014333 7 161 0.0 0.0 0.00 1.85 1.85 97 1011.0
20260507013830 7 162 0.0 0.0 0.00 1.85 1.85 97 1010.9
20260507013327 7 161 0.0 0.0 0.00 1.85 1.85 97 1010.9
20260507012825 7 159 0.0 0.0 0.00 1.85 1.85 95 1010.7
20260507012320 7 161 0.0 0.0 0.00 1.85 1.85 94 1010.7
20260507011812 8 161 0.0 0.0 0.00 1.85 1.85 92 1010.4
20260507011309 8 161 0.0 0.0 0.00 1.85 1.85 91 1010.8
20260507010808 8 162 0.0 0.0 0.00 1.85 1.85 90 1010.7
20260507010304 8 161 0.0 0.0 0.00 1.85 1.85 87 1010.7
20260507005802 8 162 0.0 0.0 0.00 1.85 1.85 88 1010.5
20260507005258 9 162 0.0 0.0 0.00 1.85 1.85 86 1010.8
20260507004755 9 161 0.0 0.0 0.00 1.85 1.85 85 1010.5
20260507004252 10 161 0.0 0.0 0.00 1.85 1.85 84 1010.5
20260507003748 10 162 0.0 0.0 0.00 1.85 1.85 82 1010.3
20260507003244 10 161 0.0 0.0 0.00 1.85 1.85 83 1010.4
20260507002740 10 162 0.0 0.0 0.00 1.85 1.85 80 1010.4
20260507002236 11 161 0.0 0.0 0.00 1.85 1.85 80 1010.3
20260507001733 11 161 0.0 0.0 0.00 1.85 1.85 79 1010.1
20260507001231 11 161 0.0 0.0 0.00 1.85 1.85 79 1010.2
20260507000727 11 162 0.0 0.0 0.00 1.85 1.85 77 1009.9
20260507000222 12 164 0.0 0.0 0.00 1.85 1.85 78 1010.0
20260506235720 12 161 0.0 0.0 0.00 1.85 1.85 67 1009.9
20260506235215 13 161 0.0 0.0 0.00 1.85 1.85 70 1010.0
20260506234712 12 160 0.0 0.0 0.00 1.85 1.85 69 1010.1
20260506234209 12 161 0.0 0.0 0.00 1.85 1.85 67 1010.1
20260506233707 13 159 1.6 1.6 0.00 1.85 1.85 69 1009.9
20260506233203 13 166 1.6 1.6 0.00 1.85 1.85 65 1010.0
20260506232659 13 155 3.2 3.2 0.00 1.85 1.85 63 1009.9
20260506232155 13 165 3.2 3.2 0.00 1.85 1.85 61 1009.6
20260506231652 13 175 6.4 6.4 0.00 1.85 1.85 62 1009.6
20260506231151 13 170 1.6 1.6 0.00 1.85 1.85 61 1009.8
20260506230647 13 155 0.0 1.6 0.00 1.85 1.85 60 1010.0
20260506230144 13 137 0.0 3.2 0.00 1.85 1.85 63 1009.8
20260506225640 13 163 1.6 1.6 0.00 1.85 1.85 63 1010.0
20260506225137 13 154 3.2 3.2 0.00 1.85 1.85 63 1009.8
20260506224634 13 155 3.2 3.2 0.00 1.85 1.85 62 1009.6
20260506224130 13 157 3.2 4.8 0.00 1.85 1.85 61 1010.0
20260506223626 13 136 6.4 6.4 0.00 1.85 1.85 62 1010.1
20260506223122 13 147 3.2 3.2 0.00 1.85 1.85 61 1009.8
20260506222620 13 148 3.2 4.8 0.00 1.85 1.85 63 1010.1
20260506222116 13 164 4.8 6.4 0.00 1.85 1.85 60 1010.1
20260506221614 13 159 3.2 3.2 0.00 1.85 1.85 62 1010.0
20260506221112 13 161 1.6 1.6 0.00 1.85 1.85 61 1010.1
20260506220608 13 157 3.2 3.2 0.00 1.85 1.85 58 1010.1
20260506215600 13 170 3.2 3.2 0.00 1.85 1.85 60 1010.3
20260506215055 13 143 4.8 4.8 0.00 1.85 1.85 60 1010.3
20260506214553 13 145 3.2 3.2 0.00 1.85 1.85 58 1010.0
20260506214050 13 138 4.8 6.4 0.00 1.85 1.85 59 1010.2
20260506213548 13 142 3.2 4.8 0.00 1.85 1.85 60 1010.0
20260506213045 13 147 4.8 6.4 0.00 1.85 1.85 60 1009.9
20260506212542 13 145 4.8 4.8 0.00 1.85 1.85 60 1010.1
20260506212037 13 164 4.8 9.7 0.00 1.85 1.85 62 1009.8
20260506211533 14 123 1.6 3.2 0.00 1.85 1.85 60 1009.7
20260506211030 14 141 6.4 6.4 0.00 1.85 1.85 60 1009.6
20260506210527 14 188 3.2 4.8 0.00 1.85 1.85 59 1009.4
20260506210023 13 165 3.2 3.2 0.00 1.85 1.85 61 1009.8
20260506205520 13 158 1.6 3.2 0.00 1.85 1.85 59 1009.6
20260506205015 13 159 1.6 1.6 0.00 1.85 1.85 58 1009.7
20260506204514 14 191 9.7 12.9 0.00 1.85 1.85 60 1009.8
20260506204010 13 155 3.2 3.2 0.00 1.85 1.85 60 1009.8
20260506203508 14 129 4.8 6.4 0.00 1.85 1.85 60 1009.6
20260506203005 13 141 3.2 4.8 0.00 1.85 1.85 61 1009.9
20260506202502 13 162 1.6 1.6 0.00 1.85 1.85 60 1009.6
20260506201958 13 164 1.6 1.6 0.00 1.85 1.85 59 1009.6
20260506201456 13 173 3.2 4.8 0.00 1.85 1.85 59 1009.7
20260506200952 13 170 4.8 4.8 0.00 1.85 1.85 58 1009.8
20260506200449 13 181 4.8 4.8 0.00 1.85 1.85 58 1009.8
20260506195945 13 130 3.2 4.8 0.00 1.85 1.85 60 1009.7
20260506195442 13 148 4.8 6.4 0.00 1.85 1.85 59 1009.6
20260506194939 14 180 1.6 3.2 0.00 1.85 1.85 59 1009.8
20260506194436 14 183 3.2 4.8 0.00 1.85 1.85 57 1009.7
20260506193933 14 165 4.8 6.4 0.00 1.85 1.85 58 1009.7
20260506193430 15 163 1.6 1.6 0.00 1.85 1.85 56 1009.4
20260506192926 14 170 6.4 6.4 0.00 1.85 1.85 56 1009.5
20260506192423 15 165 1.6 1.6 0.00 1.85 1.85 56 1009.2
20260506191920 14 132 3.2 4.8 0.00 1.85 1.85 60 1009.5
20260506191417 14 216 6.4 9.7 0.00 1.85 1.85 54 1009.5
20260506190914 14 147 6.4 9.7 0.00 1.85 1.85 57 1009.8
20260506190410 14 159 3.2 4.8 0.00 1.85 1.85 55 1009.4
20260506185907 14 108 11.3 12.9 0.00 1.85 1.85 59 1009.5
20260506185404 14 158 6.4 6.4 0.00 1.85 1.85 60 1009.4
20260506184901 14 153 8.0 9.7 0.00 1.85 1.85 58 1009.1
20260506184358 14 175 8.0 9.7 0.00 1.85 1.85 56 1009.1
20260506183855 15 122 3.2 3.2 0.00 1.85 1.85 61 1009.2
20260506183350 15 187 6.4 6.4 0.00 1.85 1.85 54 1009.3
20260506182848 15 159 1.6 3.2 0.00 1.85 1.85 61 1009.0
20260506182345 15 153 3.2 4.8 0.00 1.85 1.85 59 1009.2
20260506181842 15 151 6.4 11.3 0.00 1.85 1.85 57 1009.4
20260506181340 15 143 4.8 6.4 0.00 1.85 1.85 56 1009.4
20260506180837 15 163 1.6 1.6 0.00 1.85 1.85 64 1009.3
20260506180333 15 110 11.3 14.5 0.00 1.85 1.85 67 1009.2
20260506175829 15 155 1.6 3.2 0.00 1.85 1.85 62 1009.3
20260506175327 14 161 6.4 9.7 0.00 1.85 1.85 62 1009.4
20260506174824 14 129 3.2 4.8 0.00 1.85 1.85 63 1009.7
20260506174321 14 134 9.7 12.9 0.00 1.85 1.85 64 1010.0
20260506173819 14 144 4.8 4.8 0.00 1.85 1.85 64 1009.6
20260506173315 14 180 11.3 12.9 0.00 1.85 1.85 60 1009.5
20260506172812 14 142 3.2 4.8 0.00 1.85 1.85 64 1009.7
20260506172309 14 168 6.4 9.7 0.00 1.85 1.85 64 1009.6
20260506171806 14 137 8.0 12.9 0.00 1.85 1.85 65 1009.8
20260506171303 13 157 0.0 1.6 0.00 1.85 1.85 68 1009.6
20260506170801 13 106 12.9 14.5 0.00 1.85 1.85 66 1009.8
20260506170257 13 130 6.4 6.4 0.00 1.85 1.85 66 1009.8
20260506165756 13 190 8.0 9.7 0.00 1.85 1.85 63 1009.9
20260506165253 13 135 1.6 3.2 0.00 1.85 1.85 67 1010.0
20260506164750 13 175 3.2 4.8 0.00 1.85 1.85 69 1009.7
20260506164246 13 113 8.0 9.7 0.00 1.85 1.85 67 1009.9
20260506163743 13 142 4.8 6.4 0.00 1.85 1.85 67 1009.8
20260506163238 13 127 4.8 6.4 0.00 1.85 1.85 70 1009.9
20260506162734 13 177 3.2 4.8 0.00 1.85 1.85 68 1009.6
20260506162232 13 148 4.8 6.4 0.00 1.85 1.85 68 1009.9
20260506161729 13 129 4.8 6.4 0.00 1.85 1.85 74 1009.7
20260506161226 12 164 6.4 6.4 0.00 1.85 1.85 70 1009.9
20260506160724 12 116 11.3 12.9 0.00 1.85 1.85 69 1009.7
20260506160220 12 139 9.7 11.3 0.00 1.85 1.85 68 1009.8
20260506155719 13 170 6.4 11.3 0.00 1.85 1.85 66 1009.7
20260506155216 12 151 1.6 4.8 0.00 1.85 1.85 72 1009.6
20260506153323 12 151 9.7 11.3 0.00 1.85 1.85 70 1009.9
20260506152820 12 181 8.0 12.9 0.00 1.85 1.85 67 1009.9
20260506152317 12 160 6.4 9.7 0.00 1.85 1.85 68 1010.1
20260506151816 12 152 3.2 4.8 0.00 1.85 1.85 69 1009.7
20260506151312 12 166 3.2 4.8 0.00 1.85 1.85 70 1009.3
20260506150809 12 167 3.2 3.2 0.00 1.85 1.85 68 1009.3
20260506150307 12 220 6.4 11.3 0.00 1.85 1.85 72 1009.2
20260506145803 12 175 1.6 3.2 0.00 1.85 1.85 77 1009.0
20260506145259 11 170 4.8 6.4 0.00 1.85 1.85 73 1009.0
20260506144757 11 189 6.4 11.3 0.00 1.85 1.85 75 1008.8
20260506144254 11 187 3.2 3.2 0.00 1.85 1.85 77 1008.7
20260506143752 11 190 8.0 9.7 0.00 1.85 1.85 78 1008.9
20260506143248 11 156 3.2 4.8 0.00 1.85 1.85 79 1008.5
20260506142747 10 160 1.6 3.2 0.00 1.85 1.85 80 1008.8
20260506142245 10 159 6.4 6.4 0.00 1.85 1.85 79 1008.8
20260506141743 10 88 12.9 14.5 0.00 1.85 1.85 82 1009.0
20260506141241 10 115 4.8 6.4 0.00 1.85 1.85 85 1008.7
20260506140738 10 153 4.8 6.4 0.00 1.85 1.85 83 1008.8
20260506140235 10 139 4.8 6.4 0.00 1.85 1.85 86 1008.8
20260506135732 10 86 11.3 14.5 0.00 1.85 1.85 86 1008.4
20260506135228 10 156 6.4 6.4 0.00 1.85 1.85 87 1008.7
20260506134725 9 138 6.4 9.7 0.00 1.85 1.85 89 1008.8
20260506134221 8 145 3.2 3.2 0.00 1.85 1.85 90 1008.9
20260506133719 8 178 6.4 6.4 0.00 1.85 1.85 90 1008.7
20260506133215 8 133 8.0 11.3 0.00 1.85 1.85 90 1008.6
20260506132712 8 178 6.4 9.7 0.00 1.85 1.85 91 1008.5
20260506132209 8 119 8.0 11.3 0.00 1.85 1.85 90 1008.4
20260506131707 8 177 1.6 3.2 0.00 1.85 1.85 92 1008.6
20260506131203 8 154 3.2 4.8 0.00 1.85 1.85 90 1008.5
20260506130700 8 176 1.6 3.2 0.00 1.85 1.85 92 1008.5
20260506130157 8 141 3.2 3.2 0.00 1.85 1.85 91 1008.4
20260506125655 8 134 4.8 4.8 0.00 1.85 1.85 90 1008.2
20260506125153 8 123 4.8 6.4 0.00 1.85 1.85 91 1008.4
20260506124650 8 143 3.2 6.4 0.00 1.85 1.85 92 1007.8
20260506124148 8 164 3.2 3.2 0.00 1.85 1.85 92 1007.8
20260506123645 8 149 3.2 4.8 0.00 1.85 1.85 92 1007.8
20260506123144 8 142 4.8 4.8 0.00 1.85 1.85 92 1008.2
20260506122640 8 147 0.0 1.6 0.00 1.85 1.85 92 1007.9
20260506122138 8 135 3.2 4.8 0.00 1.85 1.85 93 1008.0
20260506121635 7 165 4.8 4.8 0.00 1.85 1.85 93 1007.6
20260506121131 7 158 3.2 3.2 0.00 1.85 1.85 94 1007.8
20260506120630 7 178 6.4 6.4 0.00 1.85 1.85 95 1007.7
20260506120127 7 154 4.8 4.8 0.00 1.85 1.85 95 1007.6
20260506115625 7 139 4.8 4.8 0.00 1.85 1.85 96 1007.4
20260506115123 7 152 6.4 9.7 0.00 1.85 1.85 95 1007.0
20260506114620 7 158 0.0 0.0 0.00 1.85 1.85 96 1006.9
20260506114118 7 152 0.0 0.0 0.00 1.85 1.85 96 1006.6
20260506113616 7 161 3.2 4.8 0.00 1.85 1.85 96 1006.7
20260506113113 7 176 1.6 3.2 0.00 1.85 1.85 96 1006.6
20260506112609 7 150 0.0 0.0 0.00 1.85 1.85 97 1006.5
20260506112107 7 162 3.2 3.2 0.00 1.85 1.85 97 1006.6
20260506111604 7 154 1.6 1.6 0.00 1.85 1.85 97 1006.6
20260506111102 7 155 3.2 4.8 0.00 1.85 1.85 97 1006.5
20260506110559 7 145 3.2 4.8 0.00 1.85 1.85 98 1006.8
20260506110056 7 131 6.4 9.7 0.00 1.85 1.85 98 1006.7
20260506105552 7 137 6.4 6.4 0.00 1.85 1.85 99 1006.2
20260506105050 7 153 3.2 3.2 0.00 1.85 1.85 99 1005.9
20260506104548 7 162 0.0 1.6 0.00 1.85 1.85 99 1006.2
20260506104045 7 168 1.6 1.6 0.00 1.85 1.85 99 1006.2
20260506103542 7 154 1.6 1.6 0.00 1.85 1.85 99 1006.4
20260506103039 7 144 4.8 4.8 0.00 1.85 1.85 99 1006.5
20260506102538 7 159 1.6 3.2 0.00 1.85 1.85 99 1006.0
20260506102035 7 144 8.0 11.3 0.00 1.85 1.85 99 1005.7
20260506101531 7 113 6.4 6.4 0.00 1.85 1.85 99 1005.5
20260506101028 7 162 3.2 3.2 0.00 1.85 1.85 99 1005.3
20260506100526 7 147 4.8 6.4 0.00 1.85 1.85 99 1005.4
20260506100024 7 164 4.8 4.8 0.00 1.85 1.85 99 1005.4
20260506095523 7 145 3.2 3.2 0.00 1.85 1.85 99 1005.4
20260506095018 7 157 1.6 1.6 0.00 1.85 1.85 99 1005.3
20260506094517 7 159 0.0 1.6 0.00 1.85 1.85 99 1005.4
20260506094014 7 160 0.0 1.6 0.00 1.85 1.85 99 1005.4
20260506093513 7 159 3.2 3.2 0.00 1.85 1.85 99 1005.3
20260506093010 6 168 3.2 3.2 0.00 1.85 1.85 99 1005.2
20260506092508 6 182 3.2 4.8 0.00 1.85 1.85 99 1004.9
20260506092003 6 160 1.6 1.6 0.00 1.85 1.85 99 1004.7
20260506091502 6 166 1.6 3.2 0.00 1.85 1.85 99 1004.8
20260506090959 6 134 3.2 3.2 0.00 1.85 1.85 99 1004.9
20260506090457 6 158 1.6 3.2 0.00 1.85 1.85 99 1004.5
20260506085953 6 164 0.0 1.6 0.00 1.85 1.85 99 1004.6
20260506085450 6 154 6.4 6.4 0.00 1.85 1.85 99 1004.9
20260506084946 6 162 1.6 3.2 0.00 1.85 1.85 99 1005.0
20260506084443 6 145 3.2 3.2 0.18 1.85 1.85 99 1005.2
20260506083939 6 151 3.2 4.8 0.18 1.85 1.85 99 1005.1
20260506083437 6 161 1.6 1.6 0.00 1.83 1.83 99 1004.9
20260506082934 6 161 3.2 3.2 0.00 1.83 1.83 99 1004.9
20260506082431 6 156 4.8 6.4 0.00 1.83 1.83 99 1004.8